Preview of NWS' New Version of Forecast
This preview is not operational and should not be used for support decisions.
Latest weather observations around

Auburn-Opelika Airport (KAUO)

Using International System of Units (Switch to English Units)
Date/ Time (CDT) Wind (kph) Vis. (km) Weather Sky Cond. Temp (°C) Rel. Humidity Wind Chill (°C) Heat Index (°C) Pressure Precip. (cm)
Air Dwpt 6 hour Altimeter (hPa) Sea level (hPa) 1 hr 3 hr 6 hr
Max Min
Oct 15 09:56 S 18 16.09 Mostly Cloudy BKN007 BKN037 23 21     87%   24 1021.3 1022.7      
Oct 15 08:56 S 18 16.09 Cloudy OVC007 22 21     93%   22 1021.3 1022.5      
Oct 15 07:56 SSE 15 16.09 Cloudy OVC007 20 19     93%     1021 1022.2      
Oct 15 07:42 SSE 11 16.09 Mostly Cloudy BKN007 19 18     94%     1020.7        
Oct 15 07:30 SE 11 16.09 Partly Cloudy SCT007 19 18     94%     1020.7        
Oct 15 06:56 SE 9 16.09 Clear CLR 18 17     93%     1020 1021.5      
Oct 15 04:56 SE 8 16.09 Clear CLR 18 16     87%     1020 1021.1      
Oct 15 03:56 9 16.09 Clear CLR 19 16     79%     1019.7 1020.9      
Oct 15 02:56 SE 11 16.09 Clear CLR 20 16     76%     1020 1021.1      
Oct 15 00:56 ESE 8 16.09 Clear CLR 21 15     70%     1019.7 1020.7      
Oct 14 23:56 ESE 9 16.09 Clear   22 15     66%   22 1019.7 1020.7      
Oct 14 22:56 SE 11 16.09 Clear CLR 22 15     64%   22 1020 1021.2      
Oct 14 21:56 SE 9 16.09 Clear CLR 22 16     66%   22 1020 1021.1      
Oct 14 20:56 Calm 16.09 Clear CLR 22 16     66%   22 1019.7 1020.9      
Oct 14 19:56 SE 5 16.09 Clear CLR 23 16     64%   23 1019.3 1020.6      
Oct 14 18:56 ESE 5 16.09 Mostly Clear FEW110 23 16     64%   23 1019 1020.3      
Oct 14 17:56 SE 5 16.09 Mostly Cloudy BKN100 26 16     54%   26 1018.3 1019.6      
Oct 14 16:56 SSE 9 16.09 Clear CLR 27 15     47%   27 1018.3 1019.3      
Oct 14 15:56 S 9 16.09 Clear CLR 28 14     44%   28 1018 1019.3      
Oct 14 14:56 11 16.09 Clear CLR 28 14     44%   28 1018 1019.1      
Oct 14 13:56 SSE 15 16.09 Clear CLR 27 14     45%   27 1018 1019.1      
Oct 14 12:56 SW 9 16.09 Clear CLR 27 14     45%   27 1019 1020.1      
Oct 14 11:56 SSW 13 16.09 Clear CLR 26 16     52%   26 1019.7 1020.7      
Oct 14 10:56 S 15 16.09 Clear CLR 24 14     54%   24 1019.3 1020.8      
Oct 14 09:56 SSE 11 16.09 Clear CLR 23 16     64%   23 1019.7 1021.2      
Oct 14 08:56 SE 9 16.09 Clear CLR 21 14     65%     1020 1021.4      
Oct 14 07:56 ESE 9 16.09 Clear CLR 19 14     73%     1018.6 1020.3      
Oct 14 06:56 E 9 16.09 Clear CLR 17 13     80%     1018.3 1019.9      
Oct 14 05:56 ESE 8 16.09 Mostly Clear FEW100 18 13     75%     1018 1019.4      
Oct 14 04:56 E 9 16.09 Mostly Clear FEW110 18 13     75%     1017.3 1018.5      
Oct 14 03:56 E 13 16.09 Mostly Clear FEW110 18 13     75%     1016.6 1018      
Oct 14 02:56 E 8 16.09 Clear CLR 17 14     81%     1016.9 1018.4      
Oct 14 01:56 E 11 16.09 Clear CLR 18 14     78%     1016.9 1018.2      
Oct 14 00:56 ESE 11 16.09 Clear CLR 18 14     76%     1015.9 1017.5      
Oct 13 23:56 Calm 16.09 Clear CLR 18 14     76%     1017.3 1018.7      
Oct 13 22:56 E 9 16.09 Clear CLR 18 14     81%     1017.3 1018.7      
Oct 13 21:56 Calm 16.09 Clear CLR 17 15     87%     1017.3 1018.8      
Oct 13 20:56 Calm 16.09 Clear CLR 18 15     84%     1016.6 1018.3      
Oct 13 19:56 Calm 16.09 Clear CLR 18 15     81%     1016.3 1018      
Oct 13 18:56 Calm 16.09 Clear CLR 19 15     76%     1014.9 1017      
Oct 13 17:56 WNW 5 16.09 Clear CLR 22 14     61%   22 1014.9 1016.6      
Oct 13 16:56 WNW 9 16.09 Clear CLR 24 13     52%   24 1014.9 1016.5      
Oct 13 15:56 NW 11 16.09 Clear CLR 24 14     52%   24 1014.6 1016      
Oct 13 14:56 WNW 11 16.09 Clear CLR 24 13     50%   24 1014.6 1016.3      
Oct 13 13:56 NNW 5 16.09 Clear CLR 23 13     52%   23 1015.2 1016.9      
Oct 13 12:56 8 16.09 Clear CLR 23 12     51%   22 1015.9 1017.7      
Oct 13 11:56 5 16.09 Clear CLR 22 12     51%   22 1016.6 1018.2      
Oct 13 10:56 NE 9 16.09 Clear CLR 21 11     54%     1016.6 1018.4      
Oct 13 09:56 NNE 15 16.09 Clear CLR 20 10     53%     1016.9 1018.5      
Oct 13 08:56 N 9 16.09 Clear CLR 18 10     58%     1016.3 1018.1      
Oct 13 04:56 N 5 16.09 Clear CLR 13 11     86%     1014.2 1016      
Oct 12 23:56 Calm 16.09 Clear CLR 14 11     81%     1013.9 1015.7      
Oct 12 20:56 NW 5 16.09 Clear CLR 16 12     75%     1014.2        
Oct 12 18:56 WNW 8 16.09 Clear CLR 18 11     63%     1012.9 1015      
Oct 12 16:56 WNW 13 16.09 Clear CLR 22 11     48%   22 1012.9 1014.5      
Oct 12 10:56 NW 11 16.09 Clear CLR 19 9     54%     1015.6 1017.4      
Oct 12 07:56 NNW 13 16.09 Clear CLR 12 9     86%     1014.9 1017      
Oct 12 06:56 NNW 8 16.09 Clear CLR 11 9     92%     1014.6 1016.6      
Oct 12 00:56 NNW 9 16.09 Clear CLR 14 12     89%     1014.6 1015.9      
Oct 11 09:56 WNW 21 16.09 Cloudy FEW018 OVC028 24 21     82%   24 1011.2 1012.1      
Oct 11 07:56 WNW 13 16.09 Cloudy FEW015 OVC024 23 21     90%   23 1009.5 1010.6      
Oct 11 04:56 WNW 15 16.09 Cloudy OVC011 23 22     94%   24 1005.8 1006.9      
Oct 11 03:56 NW 22 16.09 Mostly Cloudy BKN013 BKN021 23 22     94%   24 1004.8 1005.7      
Oct 11 00:27 NW 32 16.09 Cloudy and Windy OVC014 22 21     94%   23 1002        
Oct 10 23:37 NW 33 16.09 Cloudy and Windy BKN009 OVC012 22 22     100%   23 1001.4   0    
Oct 10 23:20 NNW 30 16.09 Light Rain SCT006 BKN010 OVC065 22 22     100%   23 1001.4   0    
Oct 10 22:05   11.27 Heavy Rain BKN009 BKN026 OVC036 22 22     100%   23 1001   0    
Oct 10 21:56   11.27 Heavy Rain SCT009 BKN026 OVC039 22 22     97%   23 1001 1002.1 1 3  
Oct 10 21:45   9.66 Heavy Rain and Fog/Mist SCT009 BKN029 OVC039 22 21     94%   23 1001   1    
Oct 10 16:56 NNE 26 6.44 Rain and Fog/Mist FEW006 BKN009 OVC023 23 23     97%   24 1001.4 1002.5 1    
Oct 10 16:40 NE 32 16.09 Rain SCT008 BKN016 OVC023 24 23     94%   25 1001.7   0    
Oct 10 14:56   9.66 Heavy Rain and Fog/Mist FEW006 BKN020 OVC026 24 23     96%   25 1003.7 1004.8 1    
Oct 10 14:29 NE 15 9.66 Heavy Rain and Fog/Mist BKN006 BKN013 OVC020 24 23     94%   25 1005.1   0    
Notice The following observation data may not be complete
Oct 10 11:40   12.87 Light Rain BKN008 BKN028 OVC035          %         0    
Oct 10 11:33 NE 17 12.87 Light Rain SCT008 BKN028 OVC035 24 23     94%   25 1009.2   0    
Notice The following observation data may not be complete
Oct 10 07:35   2.01 Fog/Mist OVC008          %              
Oct 10 05:30 E 17 16.09 Cloudy OVC010 23 22     94%   24 1010.5        
Oct 09 23:56 ESE 13 16.09 Clear   23 22     96%   24 1013.2   0    
Oct 09 17:56   16.09 Cloudy SCT019 BKN032 OVC044 24 21     84%   25 1013.9        
Oct 09 16:56 ENE 13 16.09 Cloudy OVC050 27 20     65%   29 1013.6 1014.5      
Oct 09 14:18 E 24 16.09 Partly Cloudy SCT028 SCT046 28 21     66%   30 1015.2        
Oct 09 11:56 E 17 16.09 Cloudy BKN022 BKN026 OVC047 26 21     76%   26 1017.6 1018.5      
Oct 09 06:22 E 17 16.09 Cloudy OVC013 23 21     89%   24 1018.3        
Notice The following observation data may not be complete
Oct 09 02:26   16.09 Mostly Cloudy BKN019          %              
Oct 09 01:56 E 17 16.09 Mostly Cloudy FEW019 SCT065 BKN080 23 21     90%   23 1018.6        
Oct 08 22:56 E 18 16.09 Clear CLR 24 21     84%   25 1019 1019.9      
Notice The following observation data may not be complete
Oct 08 17:12   4.83 Haze FEW050 SCT070          %              
Oct 08 12:56 E 21 16.09 Partly Cloudy FEW040 SCT055 29 19     57%   30 1020.3 1020.9      
Oct 08 11:56 ESE 13 16.09 Mostly Cloudy SCT033 BKN044 27 21     67%   29 1021 1021.9      
Notice The following observation data may not be complete
Oct 08 09:03   16.09 Cloudy OVC011          %              
Oct 08 08:56 ESE 15 16.09 Cloudy OVC009 23 21     87%   24 1021.3 1022.3      
Oct 08 08:19 ESE 13 16.09 Cloudy OVC009 23 21     89%   24 1021        
Oct 08 04:56 ENE 15 16.09 Clear CLR 22 21     93%   22 1020 1020.9      
Oct 08 03:56 E 13 16.09 Clear CLR 22 20     87%   23 1020 1020.8      
Oct 07 16:56 E 15 16.09 Clear CLR 29 20     57%   31 1019.7 1020.5      
Oct 07 13:56 SSE 11 16.09 Partly Cloudy SCT043 SCT050 30 20     55%   32 1020.7        
Oct 07 10:56 11 16.09 Clear CLR 27 20     65%   29 1023 1023.8      
Oct 07 06:56 E 9 16.09 Clear CLR 21 18     84%     1021.7 1022.9      
Oct 07 04:56 E 9 16.09 Clear   22 18     81%   22 1020.7 1021.5      
Oct 06 18:56 Calm 16.09 Mostly Clear FEW060 27 21     69%   28 1019 1020.2      
Oct 06 16:56 ESE 5 16.09 Clear CLR 31 18     47%   32 1019 1019.7      
Oct 06 14:56 11 16.09 Mostly Clear FEW055 32 19     48%   33 1019.3 1020.1      
Oct 06 12:56 Calm 16.09 Mostly Cloudy SCT047 BKN080 31 20     52%   33 1020.3 1021.1      
Oct 06 06:56 Calm 16.09 Clear CLR 21 20     96%     1020.3 1021.3      
Oct 06 04:56 Calm 16.09 Clear CLR 21 20     93%     1019 1019.9      
Oct 06 03:56 Calm 16.09 Clear CLR 22 20     90%   22 1018.6 1019.4      
Oct 06 02:56 SSE 5 16.09 Clear CLR 22 21     93%   22 1018.6 1019.4      
Oct 05 22:56 Calm 16.09 Mostly Cloudy BKN060 24 22     88%   25 1019.3 1020.2      
Oct 05 20:56 N 5 16.09 Clear CLR 24 21     84%   25 1019.3 1020.2      
Oct 05 19:56 Calm 16.09 Clear CLR 26 21     76%   26 1019 1020      
Oct 05 16:56 Calm 16.09 Clear CLR 30 20     55%   32 1018 1018.7      
Oct 05 13:56 Calm 16.09 Mostly Cloudy BKN075 31 19     50%   32 1018.6 1019.4      
Oct 05 11:56 ENE 9 16.09 Clear CLR 31 21     57%   33 1020.3 1021.1      
Oct 05 07:56 Calm 16.09 Clear CLR 23 21     87%   24 1021 1022.2      
Oct 05 06:56 NNW 8 16.09 Clear CLR 21 19     93%     1020.7 1021.7      
Oct 05 05:56 Calm 16.09 Clear CLR 21 19     93%     1020.3 1021.2      
Oct 05 04:56 Calm 16.09 Clear CLR 21 20     96%     1019.7 1020.8      
Oct 05 03:56 NNE 5 16.09 Clear CLR 21 20     93%     1019.3 1020.3      
Oct 05 02:56 Calm 16.09 Clear CLR 22 20     90%   22 1019 1019.9      
Oct 05 01:56 Calm 16.09 Clear CLR 22 21     93%   22 1019 1020      
Oct 05 01:11 NNW 5 16.09 Clear CLR 22 21     94%   23 1019        
Oct 05 01:04 Calm 2.41 Fog/Mist CLR 22 21     94%   23 1019        
Oct 05 00:56 Calm 1.21 Fog/Mist CLR 22 21     93%   22 1019 1019.9      
Oct 05 00:54 Calm 2.01 Fog/Mist CLR 22 21     94%   23 1019        
Oct 04 23:56 Calm 16.09 Clear CLR 22 21     93%   23 1019 1019.9      
Oct 04 22:56 Calm 16.09 Clear CLR 23 21     90%   23 1019.3 1020.2      
Oct 04 21:56 Calm 16.09 Clear CLR 23 22     94%   24 1019.7 1020.5      
Oct 04 20:56 Calm 16.09 Clear CLR 24 22     88%   25 1019.3 1020.2      
Oct 04 19:56 Calm 16.09 Clear CLR 24 22     85%   25 1019 1019.9      
Oct 04 18:56 Calm 16.09 Clear CLR 26 22     79%   26 1018.6 1019.9      
Oct 04 17:56 Calm 16.09 Clear CLR 27 22     72%   29 1018.6 1019.8      
Oct 04 16:56 NW 5 16.09 Clear CLR 28 22     69%   30 1019 1019.9      
Oct 04 15:56 Calm 14.48 Mostly Clear FEW045 30 20     55%   32 1019 1020      
Oct 04 14:56 5 16.09 Mostly Cloudy FEW065 BKN100 30 20     55%   32 1019.7 1020.3      
Oct 04 13:56 E 8 16.09 Mostly Cloudy BKN065 BKN085 29 20     57%   31 1020 1020.9      
Oct 04 12:56 5 16.09 Mostly Cloudy BKN047 BKN060 30 21     59%   33 1020.7 1021.5      
Oct 04 11:56 Calm 16.09 Clear CLR 28 20     61%   30 1021.7 1022.5      
Oct 04 10:56 ENE 5 16.09 Mostly Clear FEW032 29 21     61%   31 1022 1022.9      
Oct 04 09:56 Calm 16.09 Clear CLR 27 20     65%   29 1022.7 1023.6      
Oct 04 08:56 N 5 16.09 Clear CLR 26 21     74%   26 1022.7 1023.6      
Oct 04 07:56 Calm 16.09 Clear CLR 23 21     87%   23 1022 1023.2      
Oct 04 06:56 Calm 16.09 Clear CLR 20 19     93%     1021.3 1022.7      
Oct 04 05:56 Calm 16.09 Clear CLR 21 19     93%     1021 1022      
Oct 04 04:56 Calm 16.09 Clear CLR 21 19     90%     1020.3 1021.2      
Oct 04 03:56 Calm 16.09 Clear CLR 21 19     90%     1019.7 1020.6      
Oct 04 02:56 Calm 16.09 Clear CLR 22 19     87%   22 1019.3 1020.1      
Oct 04 01:56 Calm 16.09 Clear CLR 22 20     90%   22 1019.7 1020.3      
Oct 04 00:56 Calm 16.09 Clear CLR 22 20     90%   22 1020 1020.8      
Oct 03 23:56 Calm 16.09 Clear CLR 22 19     84%   23 1020.3 1021.1      
Oct 03 22:56 Calm 16.09 Clear CLR 23 19     81%   23 1020.3 1021.2      
Oct 03 21:56 E 5 16.09 Clear CLR 23 20     84%   23 1020.3 1021.3      
Oct 03 20:56 Calm 16.09 Clear   24 19     76%   24 1020 1020.8      
Notice The following observation data may not be complete
Sep 25 09:32     Cloudy OVC010          %         0    
Sep 25 09:25 SSE 13   Cloudy OVC008 25 23     89%   26 1021.7   0    
Sep 25 09:11 SSE 15 1.21 Fog/Mist OVC008 25 23     89%   26 1021.7   0    
Sep 25 08:56 SSE 13 16.09 Cloudy OVC008 24 23     91%   25 1021.7 1022.7      
Sep 25 07:56 SE 9 16.09 Cloudy OVC006 23 22     94%   24 1021.7 1022.6      
May 15 09:56 ENE 9 16.09 Cloudy BKN021 BKN026 OVC034 24 19     76%   24 1016.6 1017.7   0  
May 14 22:56 SE 9 16.09 Clear CLR 23 18     71%   24 1015.9 1016.6      
May 12 01:56 Calm 16.09 Clear CLR 21 15     70%     1019.7 1020.5      
Notice The following observation data may not be complete
Jun 12 07:35   16.09 Mostly Cloudy BKN004          %              
Jun 11 03:56 ESE 11 16.09 Clear CLR 22 18     81%   22 1019.7 1020.4      
Jun 08 23:56 Calm 16.09 Clear   20 16     78%     1013.2 1014.4      
Jun 08 19:56 Calm 16.09 Mostly Cloudy BKN050 BKN065 24 16     60%   24 1012.2 1013.2      
Jun 08 14:56 Calm 16.09 Mostly Cloudy SCT055 BKN075 26 14     48%   25 1012.2 1013.4      
Jun 08 06:56 ENE 15 16.09 Clear CLR 19 14     75%     1012.5 1013.8      
Jun 08 01:56 E 9 16.09 Cloudy BKN020 BKN026 OVC036 20 18     90%     1011.2 1012.2      
Jun 07 11:56 NE 21 16.09 Cloudy OVC021 24 19     74%   25 1009.5 1010.6      
Jun 06 10:52 NE 9 16.09 Mostly Cloudy BKN014 BKN039 25 22     83%   26 1009.2        
Jun 06 10:19 N 8 16.09 Mostly Cloudy SCT011 BKN016 BKN024 24 22     89%   25 1009.8        
Jun 06 04:38 SSE 5 16.09 Cloudy SCT002 OVC100 21 21     100%     1009.8        
Jun 05 22:56 SE 8 16.09 Light Rain SCT026 BKN036 OVC085 23 22     96%   24 1011.2 1012.1 0    
Jun 05 16:56 SW 13 16.09 Partly Cloudy FEW019 SCT075 SCT100 26 22     77%   28 1010.2 1011.2